[[{"header":{"parameterUnit":"m.s-1","parameterCategory":1,"la1":30.2991,"la2":30.254,"lo1":-89.0895,"lo2":-89.0444,"dy":0.0017,"dx":0.0017,"nx":28,"ny":28,"refTime":"2023-04-25T21:00:00:Z","depth":0,"parameterNumber":2,"parameterNumberName":"U-component_of_WINDS"},"data":[0,0,0,0,0,0,0,0,0,0,0,0,0,0,0,0,0,0,0,0,0,0,0,0,0,0,0,0,0,0,0,0,0,0,0,0,0,0,0,0,0,0,0,0,0,0,0,0,0,0,0,0,0,0,0,0,0,0,-3.1383,-3.1384,0,-3.1469,-3.147,-3.1471,-3.1471,-3.147,-3.1469,-3.1468,-3.1554,-3.1558,-3.1561,0,0,0,0,0,0,0,0,0,0,0,0,0,-3.1216,-3.1219,-3.1383,-3.1384,-3.1385,-3.1469,-3.147,-3.1472,-3.1471,-3.147,-3.1468,-3.1467,-3.1553,-3.1557,-3.1561,0,0,0,0,0,0,0,0,0,0,0,0,0,-3.1294,-3.122,-3.1382,-3.1395,-3.1397,-3.1469,-3.147,-3.1472,-3.1471,-3.147,-3.1468,-3.1466,-3.1552,-3.1557,-3.1562,-3.1627,0,0,-3.1577,-3.158,0,0,0,0,0,0,0,0,-3.129,-3.13,-3.1392,-3.1394,-3.1396,-3.1458,-3.1443,-3.1524,-3.1472,-3.1443,-3.1468,-3.1466,-3.1524,-3.1531,-3.1551,-3.1631,-3.1635,-3.1578,-3.1581,-3.1583,-3.1584,0,0,0,0,0,0,0,-3.1284,-3.1296,-3.1417,-3.1393,-3.1396,-3.1396,-3.1405,-3.1459,-3.1492,-3.1445,-3.1446,-3.1456,-3.1524,-3.1546,-3.1553,-3.1636,-3.1578,-3.1582,-3.1585,-3.1587,-3.1775,-3.1777,0,0,0,0,0,0,-3.1276,-3.1292,-3.1414,-3.1419,-3.1338,-3.14,-3.141,-3.144,-3.1491,-3.1497,-3.1457,-3.1456,-3.1538,-3.1547,-3.1556,-3.1635,-3.1583,-3.1588,-3.1591,-3.1773,-3.1775,-3.1777,0,0,0,0,0,0,-3.1273,-3.1287,-3.1411,-3.1356,-3.1372,-3.1405,-3.1438,-3.1442,-3.1464,-3.15,-3.1506,-3.1473,-3.1537,-3.1549,-3.161,-3.1638,-3.159,-3.1595,-3.177,-3.1773,-3.1776,-3.1795,0,0,0,0,0,0,-3.1268,-3.1286,-3.1311,-3.1356,-3.1374,-3.1463,-3.1439,-3.1445,-3.1473,-3.1471,-3.1517,-3.1522,-3.1537,-3.1602,-3.1615,-3.1644,-3.1599,-3.1768,-3.1772,-3.1775,-3.1792,-3.1798,-3.1803,0,0,0,0,0,-3.1262,-3.1312,-3.1312,-3.1327,-3.1407,-3.1465,-3.1475,-3.1491,-3.1475,-3.15,-3.1524,-3.1521,-3.1634,-3.1608,-3.1622,-3.1654,-3.1766,-3.1771,-3.1775,-3.1789,-3.1797,-3.1803,0,0,0,0,0,0,-3.1269,-3.1319,-3.1319,-3.1386,-3.1421,-3.1465,-3.1497,-3.1499,-3.1539,-3.1536,-3.1553,-3.1564,-3.1624,-3.1646,-3.1616,-3.172,-3.1698,-3.1705,-3.1704,-3.1711,-3.1717,-3.171,-3.1603,0,0,0,0,0,-3.1278,-3.1322,-3.1363,-3.1418,-3.1435,-3.1463,-3.1489,-3.1499,-3.1536,-3.1551,-3.1579,-3.1614,-3.1658,-3.1686,-3.1728,-3.1795,-3.1805,-3.1824,-3.183,-3.1835,-3.184,-3.1878,-3.1887,-3.1792,-3.1792,-3.1792,0,0,-3.1298,-3.133,-3.1356,-3.142,-3.1448,-3.1493,-3.1476,-3.1523,-3.1556,-3.1558,-3.1617,-3.1639,-3.168,-3.1744,-3.1774,-3.1764,-3.1869,-3.184,-3.1844,-3.1847,-3.1883,-3.1892,-3.19,-3.1795,-3.1794,-3.1794,0,0,-3.1356,-3.1385,-3.1434,-3.1463,-3.1507,-3.1526,-3.1537,-3.1581,-3.1596,-3.1656,-3.1658,-3.1698,-3.1772,-3.1802,-3.1826,-3.1897,-3.1895,-3.191,-3.194,-3.1976,-3.1984,-3.199,-3.2015,-3.2024,-3.1916,-3.1916,-3.1916,0,-3.1374,-3.1441,-3.1459,-3.1507,-3.1534,-3.1539,-3.1588,-3.1616,-3.1671,-3.169,-3.1678,-3.1772,-3.18,-3.1872,-3.1889,-3.1909,-3.1923,-3.1904,-3.1981,-3.1988,-3.1995,-3.2018,-3.2028,-3.1918,-3.1918,-3.1917,-3.1917,0,-3.1461,-3.1508,-3.1542,-3.1596,-3.1628,-3.1677,-3.1701,-3.1731,-3.1739,-3.1758,-3.1819,-3.1854,-3.1903,-3.1921,-3.1928,-3.1993,-3.1986,-3.1978,-3.1955,-3.2005,-3.2027,-3.2037,-3.192,-3.1919,-3.1919,-3.1918,0,0,-3.1524,-3.1588,-3.1601,-3.1625,-3.1675,-3.1711,-3.176,-3.1809,-3.1834,-3.1873,-3.1914,-3.1977,-3.197,-3.1998,-3.2009,-3.2041,-3.2095,-3.2029,-3.203,-3.2039,-3.2169,-3.2174,-3.2184,-3.2095,-3.2097,-3.2098,-3.2165,0,-3.1587,-3.1674,-3.1692,-3.1767,-3.1811,-3.1816,-3.1859,-3.1894,-3.1914,-3.1953,-3.1976,-3.202,-3.2008,-3.2025,-3.2057,-3.2081,-3.2121,-3.2077,-3.2132,-3.2134,-3.212,-3.2196,-3.2201,-3.2262,-3.2174,-3.2175,-3.2176,0,-3.1671,-3.1712,-3.1792,-3.1836,-3.1855,-3.1893,-3.194,-3.1978,-3.2018,-3.203,-3.2062,-3.207,-3.2121,-3.2097,-3.2168,-3.2137,-3.2162,-3.2177,-3.218,-3.2184,-3.2157,-3.2201,-3.2283,-3.2291,-3.2191,-3.219,-3.2189,0,-3.1708,-3.1784,-3.1841,-3.1862,-3.1916,-3.1942,-3.1966,-3.2004,-3.2032,-3.2073,-3.2092,-3.2138,-3.2163,-3.2198,-3.2218,-3.2199,-3.2286,-3.2265,-3.2298,-3.2297,-3.2314,-3.2313,-3.2399,-3.2332,-3.2332,-3.2332,-3.2331,0,-3.1776,-3.1824,-3.1859,-3.1894,-3.1949,-3.1969,-3.2022,-3.2045,-3.208,-3.2119,-3.2127,-3.2164,-3.2189,-3.2229,-3.2245,-3.2301,-3.2312,-3.2323,-3.2327,-3.2322,-3.232,-3.2337,-3.2333,-3.2334,-3.2333,-3.2333,-3.2333,0,-3.1826,-3.1851,-3.1914,-3.196,-3.1972,-3.201,-3.2049,-3.2084,-3.2105,-3.2155,-3.2168,-3.22,-3.2249,-3.2272,-3.2332,-3.2343,-3.2406,-3.2407,-3.2392,-3.2393,-3.2424,-3.2421,-3.2524,-3.2538,-3.2462,-3.2463,-3.2463,0,-3.1866,-3.1904,-3.1954,-3.1981,-3.2006,-3.205,-3.2079,-3.2101,-3.2131,-3.218,-3.2208,-3.2257,-3.2297,-3.2374,-3.2403,-3.2449,-3.245,-3.2483,-3.2457,-3.2451,-3.245,-3.2447,-3.2451,-3.2487,-3.2488,-3.2489,-3.2489,0,-3.1936,-3.1947,-3.1989,-3.2036,-3.2071,-3.2109,-3.2146,-3.2168,-3.2196,-3.2229,-3.2279,-3.231,-3.2372,-3.242,-3.2468,-3.2492,-3.2495,-3.2498,-3.2508,-3.2502,-3.2492,-3.2497,-3.2404,-3.2495,-3.2494,-3.2494,-3.2493,-3.2493,-3.1982,-3.2016,-3.2057,-3.2103,-3.2134,-3.2169,-3.2203,-3.2229,-3.2271,-3.2323,-3.2334,-3.2386,-3.2426,-3.2491,-3.2516,-3.2558,-3.255,-3.2565,-3.2568,-3.2571,-3.2573,-3.2487,-3.2567,-3.2567,-3.2567,-3.2566,-3.2566,0,-3.2052,-3.2078,-3.2121,-3.2173,-3.221,-3.2211,-3.2253,-3.2283,-3.233,-3.2367,-3.2406,-3.2464,-3.2511,-3.2544,-3.2592,-3.2618,-3.2621,-3.263,-3.2628,-3.2633,-3.2577,-3.2563,-3.2627,-3.2627,-3.2627,-3.2627,-3.2627,-3.2627,-3.2092,-3.2149,-3.2165,-3.2237,-3.2263,-3.2315,-3.2339,-3.2371,-3.2401,-3.2464,-3.2504,-3.2525,-3.2561,-3.2611,-3.2655,-3.2663,-3.268,-3.2689,-3.2697,-3.2644,-3.2637,-3.2631,-3.2618,-3.2693,-3.2693,-3.275,-3.2751,-3.2751]},{"header":{"parameterUnit":"m.s-1","parameterCategory":1,"la1":30.2991,"la2":30.254,"lo1":-89.0895,"lo2":-89.0444,"dy":0.0017,"dx":0.0017,"nx":28,"ny":28,"refTime":"2023-04-25T21:00:00:Z","depth":0,"parameterNumber":3,"parameterNumberName":"V-component_of_WINDS"},"data":[0,0,0,0,0,0,0,0,0,0,0,0,0,0,0,0,0,0,0,0,0,0,0,0,0,0,0,0,0,0,0,0,0,0,0,0,0,0,0,0,0,0,0,0,0,0,0,0,0,0,0,0,0,0,0,0,0,0,4.005,4.0051,0,4.0149,4.015,4.0151,4.0133,4.0131,4.0129,4.0128,4.0226,4.023,4.0234,0,0,0,0,0,0,0,0,0,0,0,0,0,3.9843,3.9847,4.005,4.0051,4.0052,4.0149,4.015,4.0151,4.0133,4.0131,4.0129,4.0127,4.0225,4.023,4.0235,0,0,0,0,0,0,0,0,0,0,0,0,0,3.9937,3.9848,4.0049,4.0055,4.0056,4.0148,4.015,4.0152,4.0134,4.0131,4.0128,4.0126,4.0223,4.0229,4.0235,4.0327,0,0,4.0255,4.0258,0,0,0,0,0,0,0,0,3.9931,3.9944,4.0053,4.0055,4.0056,4.0126,4.0113,4.021,4.0134,4.0104,4.0128,4.0125,4.0195,4.0203,4.0227,4.0332,4.0336,4.0255,4.0259,4.0262,4.0264,0,0,0,0,0,0,0,3.9925,3.994,4.0089,4.0054,4.0057,4.0052,4.0062,4.0132,4.0163,4.0107,4.0106,4.0118,4.0195,4.0221,4.023,4.0338,4.0255,4.0261,4.0265,4.0267,4.0524,4.0527,0,0,0,0,0,0,3.9917,3.9935,4.0086,4.0092,3.9986,4.0058,4.0069,4.0106,4.0162,4.0168,4.012,4.0117,4.0212,4.0222,4.0233,4.0346,4.0262,4.0268,4.0272,4.0521,4.0525,4.0528,0,0,0,0,0,0,3.9913,3.9931,4.0082,4.0013,4.0032,4.0064,4.0106,4.011,4.0136,4.0172,4.0177,4.0141,4.021,4.0224,4.0305,4.0349,4.0271,4.0277,4.0518,4.0522,4.0526,4.057,0,0,0,0,0,0,3.9907,3.9929,3.9965,4.0014,4.0036,4.0152,4.0108,4.0113,4.0147,4.0144,4.0193,4.0199,4.0209,4.0295,4.0311,4.0356,4.0282,4.0514,4.052,4.0525,4.0565,4.0576,4.0585,0,0,0,0,0,3.9899,3.9972,3.9967,3.9985,4.0081,4.0155,4.0167,4.0178,4.0151,4.0187,4.021,4.0197,4.0341,4.0304,4.0321,4.0369,4.0511,4.0518,4.0525,4.0561,4.0574,4.0585,0,0,0,0,0,0,3.9926,3.9979,3.9973,4.0064,4.0105,4.0152,4.0197,4.0191,4.024,4.0235,4.0246,4.0257,4.0339,4.0362,4.0319,4.0461,4.0422,4.0433,4.0444,4.0456,4.0466,4.0459,4.0287,0,0,0,0,0,3.9943,3.9999,4.0042,4.0118,4.0139,4.0165,4.0197,4.0203,4.0245,4.0262,4.0292,4.0333,4.0387,4.0423,4.0475,4.0568,4.0579,4.061,4.062,4.0628,4.0637,4.0689,4.0704,4.055,4.055,4.055,0,0,3.9977,4.0013,4.0048,4.0124,4.0157,4.0215,4.0179,4.0242,4.0285,4.0271,4.035,4.0373,4.042,4.0508,4.0548,4.0529,4.0682,4.0636,4.0642,4.0647,4.0698,4.0712,4.0725,4.0555,4.0554,4.0553,0,0,4.007,4.0103,4.017,4.0204,4.0255,4.0272,4.0288,4.0336,4.0351,4.043,4.0422,4.0473,4.0566,4.06,4.063,4.0738,4.0728,4.0754,4.0806,4.0857,4.0869,4.088,4.0919,4.0933,4.0763,4.0763,4.0763,0,4.0106,4.0194,4.0206,4.027,4.0304,4.0296,4.0365,4.0397,4.0461,4.0485,4.0463,4.0581,4.0612,4.0709,4.0735,4.0759,4.0778,4.0749,4.0867,4.0878,4.0888,4.0926,4.094,4.0766,4.0766,4.0765,4.0765,0,4.0237,4.0298,4.0347,4.0411,4.0451,4.0517,4.0538,4.0576,4.0578,4.0597,4.0679,4.0716,4.0776,4.0799,4.0801,4.0896,4.0883,4.0864,4.0825,4.0905,4.0941,4.0955,4.077,4.0769,4.0768,4.0768,0,0,4.0349,4.042,4.0438,4.0467,4.0523,4.057,4.0636,4.0696,4.073,4.0774,4.083,4.091,4.0894,4.0927,4.0933,4.0977,4.1062,4.0953,4.0954,4.0973,4.1171,4.1186,4.1202,4.1056,4.1059,4.1061,4.1167,0,4.0448,4.0566,4.0578,4.0683,4.074,4.0734,4.0791,4.0831,4.0851,4.0902,4.0923,4.0981,4.0954,4.0974,4.1018,4.1042,4.1102,4.1035,4.1108,4.111,4.1097,4.1221,4.1236,4.1335,4.1181,4.1183,4.1185,0,4.0579,4.063,4.0741,4.079,4.0814,4.0866,4.0923,4.0972,4.1017,4.1028,4.1067,4.1067,4.1135,4.1093,4.1187,4.1141,4.1172,4.1188,4.1193,4.12,4.1153,4.1233,4.1366,4.1382,4.1207,4.1205,4.1204,0,4.0651,4.0747,4.0826,4.0851,4.091,4.0947,4.0973,4.1016,4.1052,4.1101,4.1125,4.1181,4.1212,4.1255,4.1271,4.1239,4.1365,4.1324,4.1376,4.1376,4.1403,4.1401,4.1545,4.1422,4.1421,4.1421,4.1421,0,4.0761,4.083,4.086,4.0908,4.0985,4.0999,4.1074,4.1098,4.1137,4.119,4.1187,4.1237,4.1254,4.1307,4.1319,4.1396,4.1409,4.142,4.1423,4.1421,4.142,4.1442,4.1436,4.1425,4.1424,4.1423,4.1423,0,4.0855,4.0878,4.0964,4.1013,4.1027,4.1082,4.1124,4.1171,4.119,4.1258,4.1274,4.1305,4.1367,4.1386,4.146,4.1469,4.1559,4.1555,4.1544,4.1545,4.1597,4.1592,4.176,4.1783,4.1643,4.1645,4.1646,0,4.0924,4.0977,4.1032,4.1068,4.1097,4.1154,4.1191,4.1207,4.1246,4.1303,4.1343,4.1405,4.1455,4.1555,4.1583,4.164,4.1638,4.1693,4.1646,4.1644,4.164,4.1637,4.1643,4.1702,4.1703,4.1704,4.1705,0,4.1045,4.1054,4.1108,4.1167,4.1211,4.1258,4.1303,4.1332,4.1354,4.1398,4.1462,4.1502,4.1579,4.164,4.1699,4.1725,4.172,4.172,4.1735,4.1735,4.1727,4.1733,4.1569,4.1716,4.1715,4.1714,4.1714,4.1713,4.1129,4.1176,4.1223,4.1284,4.132,4.1362,4.141,4.1436,4.149,4.1555,4.156,4.163,4.1675,4.1753,4.1783,4.1837,4.1821,4.1843,4.1849,4.1854,4.1859,4.1717,4.1847,4.1847,4.1847,4.1847,4.1846,0,4.1251,4.1281,4.1337,4.1401,4.1449,4.144,4.149,4.153,4.1592,4.1635,4.1685,4.1759,4.182,4.1853,4.1913,4.195,4.195,4.1966,4.1964,4.197,4.1869,4.1851,4.1966,4.1966,4.1966,4.1966,4.1966,4.1966,4.132,4.14,4.1414,4.1512,4.1542,4.1611,4.164,4.168,4.1714,4.1798,4.1848,4.187,4.191,4.1973,4.2028,4.2036,4.2059,4.2077,4.2084,4.1989,4.1977,4.1965,4.1948,4.2081,4.2082,4.218,4.2181,4.2182]}]]